This is the latest recevied weather packets stored in our database for station/object IW2LAO-13. If no packets are shown the sender has not sent any weather packets the latest 10 day(s).
| Time | Temp. | Humidity | Pressure | Rain* | Wind** | Luminosity | Snow |
|---|---|---|---|---|---|---|---|
| 1777668367 | 13.33° C | 66% | 1025.1 hPa | 0 mm | - | 0 W/m² | - |
| 1777667764 | 13.33° C | 66% | 1025.1 hPa | 0 mm | - | 0 W/m² | - |
| 1777664164 | 14.44° C | 63% | 1024.5 hPa | 0 mm | - | 0 W/m² | - |
| 1777663564 | 15° C | 62% | 1024.4 hPa | 0 mm | - | 0 W/m² | - |
| 1777659965 | 16.11° C | 56% | 1023.7 hPa | 0 mm | - | 0 W/m² | - |
| 1777658764 | 16.11° C | 53% | 1023.4 hPa | 0 mm | - | 11 W/m² | - |
| 1777647954 | 20.56° C | 42% | 1023.2 hPa | 0 mm | - | 512 W/m² | - |
| 1777646753 | 20.56° C | 42% | 1023.2 hPa | 0 mm | - | 571 W/m² | - |
| 1777646148 | 20.56° C | 42% | 1023.3 hPa | 0 mm | - | 496 W/m² | - |
| 1777642550 | 20° C | 43% | 1023.8 hPa | 0 mm | - | 742 W/m² | - |
| 1777641348 | 20° C | 43% | 1024 hPa | 0 mm | - | 775 W/m² | - |
| 1777640147 | 20° C | 45% | 1024.3 hPa | 0 mm | - | 810 W/m² | - |
| 1777630542 | 18.33° C | 48% | 1026.1 hPa | 0 mm | - | 856 W/m² | - |
| 1777626343 | 16.11° C | 50% | 1026.6 hPa | 0 mm | - | 654 W/m² | - |
| 1777623343 | 14.44° C | 55% | 1026.8 hPa | 0 mm | - | 367 W/m² | - |
| 1777621543 | 13.89° C | 61% | 1026.7 hPa | 0 mm | - | 301 W/m² | - |
| 1777620356 | 13.33° C | 67% | 1026.5 hPa | 0 mm | - | 269 W/m² | - |
| 1777613139 | 11.67° C | 79% | 1025.9 hPa | 0 mm | - | 44 W/m² | - |
| 1777611938 | 11.67° C | 79% | 1025.8 hPa | 0 mm | - | 30 W/m² | - |
| 1777610737 | 11.67° C | 77% | 1025.4 hPa | 0 mm | - | 18 W/m² | - |
| 1777610134 | 11.67° C | 76% | 1025.4 hPa | 0 mm | - | 11 W/m² | - |
| 1777607135 | 12.22° C | 74% | 1025 hPa | 0 mm | - | 0 W/m² | - |
| 1777604135 | 12.22° C | 74% | 1024.8 hPa | 0 mm | - | 0 W/m² | - |
| 1777601733 | 12.22° C | 73% | 1024.8 hPa | 0 mm | - | 0 W/m² | - |
| 1777601132 | 12.78° C | 73% | 1024.8 hPa | 0 mm | - | 0 W/m² | - |
* Rain latest hour (hover to see other rain measurements)
** Current wind speed in m/s (hover to see current wind gust speed)